Overview Statistics Trail Chart Weather Telemetry Raw packets
 

This is the latest recevied weather packets stored in our database for station/object K1BES. If no packets are shown the sender has not sent any weather packets the latest 10 day(s).

<< 52 53 54 55 56 57 58 >>
Time Temp. Humidity Pressure Rain* Wind** Luminosity Snow
1788291067 32.78° C 70% 1016.6 hPa 0 mm - 878 W/m² -
1788290762 32.78° C 70% 1016.9 hPa 0 mm - 890 W/m² -
1788290457 32.78° C 68% 1016.9 hPa 0 mm - 905 W/m² -
1788290153 33.33° C 69% 1016.8 hPa 0 mm - 912 W/m² -
1788289849 32.78° C 71% 1017 hPa 0 mm - 922 W/m² -
1788289545 32.22° C 72% 1017.2 hPa 0 mm - 928 W/m² -
1788289244 32.22° C 71% 1017.3 hPa 0 mm - 948 W/m² -
1788288943 32.22° C 72% 1017.6 hPa 0 mm - 976 W/m² -
1788288642 31.67° C 75% 1017.5 hPa 0 mm - 1017 W/m² -
1788288337 31.67° C 72% 1017.5 hPa 0 mm - 309 W/m² -
1788288032 31.67° C 74% 1017.6 hPa 0 mm - 441 W/m² -
1788287732 32.78° C 72% 1017.4 hPa 0 mm - 309 W/m² -
1788287428 32.78° C 71% 1017.8 hPa 0 mm - 1110 W/m² -
1788287124 32.22° C 73% 1017.6 hPa 0 mm - 1134 W/m² -
1788286824 32.22° C 73% 1018 hPa 0 mm - 1100 W/m² -
1788286523 31.67° C 72% 1017.8 hPa 0 mm - 988 W/m² -
1788286223 32.22° C 72% 1017.8 hPa 0 mm - 1078 W/m² -
1788285921 32.22° C 70% 1018.1 hPa 0 mm - 486 W/m² -
1788285617 32.78° C 70% 1018 hPa 0 mm - 1126 W/m² -
1788285311 32.22° C 72% 1018 hPa 0 mm - 1125 W/m² -
1788285010 32.22° C 72% 1018.1 hPa 0 mm - 1138 W/m² -
1788284707 32.22° C 71% 1018.1 hPa 0 mm - 402 W/m² -
1788284402 32.22° C 72% 1017.9 hPa 0 mm - 1219 W/m² -
1788284097 31.11° C 74% 1018 hPa 0 mm - 1156 W/m² -
1788283793 31.11° C 76% 1018.3 hPa 0 mm - 275 W/m² -

* Rain latest hour (hover to see other rain measurements)
** Current wind speed in m/s (hover to see current wind gust speed)